Weather in Betta

Russia / Krasnodar Krai     44°22′21″N   38°23′26″E
temp.,
°C
wind,
m/s
gust,
m/s
humid.,
%
clouds,
%
prec.,
mm/h
press.,
hPa
HPBL,
m
8 march, mon
mon800:00+4w445175 0.0 10231283
03:00+4wsw444349 0.0 10221358
06:00+4sw44460 0.0 10211376
09:00+4wsw565112 0.0 10201598
12:00+5sw5663100 0.1 10201158
15:00+5sw7761100 0.1 10181251
18:00+5ssw8863100 0.0 10181120
21:00+6sw997297 0.1 10181111
9 march, tue
tue900:00+6sw897095 0.6 10181243
03:00+6sw897297 1.1 10171130
06:00+6sw786797 0.5 10171137
09:00+6sw886596 0.7 10181271
12:00+6wsw91077100 0.7 10191092
15:00+3n3394100 3.4 1019243
18:00+5wsw247577 0.1 1020511
21:00+5wnw556770 0.1 1022944
10 march, wed
wed1000:00+4n446997 0.0 1023423
03:00+2n337799 0.0 1023448
06:00+3ne3364100 0.0 1024528
09:00+3ne456192 0.0 1025424
12:00+4ne4457100 0.0 1024642
15:00+5ne555898 0.0 1022839
18:00+4ne91070100 0.0 1021572
21:00+3ne111372100 0.0 1020465
11 march, thu
thu1100:00+3ne111374100 0.0 1019379
03:00+2ne111377100 0.0 1019358
06:00+2ne151879100 0.0 1018456
09:00+2ne151978100 0.0 1018613
12:00+3ne151971100 0.0 1018900
15:00+3ne151967100 0.0 10171093
18:00+2ne162166100 0.0 10171116
21:00+1ne14187299 0.0 10181103
12 march, fri
fri1200:000nne14187579 0.0 10181090
03:00−1nne14187864 0.0 10191052
06:00−2nne1418770 0.0 10211058
09:00−2nne1418720 0.0 10231063
12:000nne1417620 0.0 10241169
15:00+2nne1316580 0.0 10241141
18:00+1nne1317630 0.0 1026857
21:000ne1113717 0.0 1027454